{"data":{"norad_id":64609,"intl_designator":"2025-137R","name":"STARLINK-34513","alt_names":[],"object_type":"PAYLOAD","status":"ACTIVE","operator":null,"country":"US","launch_date":"2025-06-25","launch_site_code":"AFETR","launch_vehicle":null,"mission":null,"orbit_class":"UNKNOWN","rcs_meters":null,"size_class":null,"mass_kg":null,"dimensions":null,"purposes":["comms"],"wikipedia_slug":null,"has_3d_model":false,"image_url":null,"decayed_at":null,"tle_current":{"epoch":"2026-05-24T18:22:48.582048Z","epoch_age_seconds":91935,"freshness":"FRESH","line1":"1 64609U 25137R   26144.76584007  .00010889  00000+0  37927-3 0  9993","line2":"2 64609  53.1590 341.7870 0001038  80.1592 279.9526 15.30196709 52476","mean_motion":15.30196709,"eccentricity":0.0001038,"inclination_deg":53.159,"raan_deg":341.787,"arg_perigee_deg":80.1592,"mean_anomaly_deg":279.9526,"bstar":0.00037927,"rev_number":5247,"period_min":94.105548099176,"perigee_km":474.51351680495,"apogee_km":475.93627473451,"semimajor_km":6853.3618957697,"source":"CELESTRAK","updated_at":"2026-05-25T13:38:20.496206Z"}}}